Vertical_Velocity
2 2 -0 -1 -3 -1 -2 0 3 -1 -2 -3 -1 1 0 1 2 1 0 1 0 -1 -0 -2 -1 -2 -2 -1 -2 -1 -2 -1 -0 -1 -1 -2 -1 -0 -1 -1 -1 -1 -2 -2 -1 -1 -1 0 -0
1 0 -2 -0 -2 -1 -1 0 3 1 -0 -1 -3 0 -1 2 -1 -2 2 1 1 -0 -1 -1 -1 -1 -1 -1 -1 -0 -1 -0 -0 -1 -1 -1 -1 -1 -1 -0 -0 -0 -1 -1 -2 -1 -2 -1 -1
3 -1 0 -3 -3 3 3 -0 -1 2 -0 -0 -2 -1 0 -0 -1 -1 -0 1 1 0 -0 -0 -2 -0 -1 -1 -2 -1 -0 -1 -0 -1 -1 -1 -2 -1 -1 -1 -2 -1 -1 -0 -0 -0 -1 -0 -1
1 -3 -3 -6 3 2 1 -3 -2 2 0 0 1 -1 1 0 -1 -0 -1 1 2 1 1 0 -0 -1 -2 -1 -1 -3 -0 -0 -0 -0 -1 -1 -0 -0 -1 -1 -1 -1 -1 -1 -1 -2 -1 -0 -1
-3 4 -6 1 2 3 -0 3 2 -0 1 -1 1 2 1 -1 -0 -1 0 0 1 0 0 -0 0 0 -1 0 -0 -1 -1 -1 -1 -1 -0 -1 -1 -1 -1 -1 -0 -0 -1 0 0 0 -1 -1 -0
-3 -4 -2 3 2 0 -1 1 1 2 1 -0 -1 -1 0 -1 3 -0 1 -1 -0 0 -0 -1 -1 -1 -1 -1 -2 -0 -1 -1 -1 -1 -0 -1 0 1 0 0 1 0 0 -1 -1 -1 -1 -2 -3
0 5 1 5 -2 -3 2 3 -2 -0 0 3 3 2 2 0 2 0 1 0 0 0 -2 -2 -1 -2 -1 0 -0 -1 0 -1 -1 -0 -1 -1 -1 -1 -0 1 1 1 -1 -1 -0 -1 -1 -1 -2
-2 -2 -3 -2 -2 4 2 3 3 1 3 2 1 1 0 0 0 -0 0 0 0 -0 -2 -1 -2 -1 -0 0 -1 -1 -2 -2 -2 -2 -1 -1 0 -0 -1 -2 -1 -0 0 0 1 -0 -0 -0 -1
2 -6 0 -4 0 6 7 3 0 0 1 1 -1 -1 3 0 1 1 1 1 1 1 -0 -0 -0 -0 -1 -1 -1 -2 -1 -1 -1 -1 -1 -1 -1 -1 -1 -1 -1 -1 -1 0 -0 -1 -0 1 -1
-4 -2 1 -2 2 7 4 1 1 0 -1 1 4 1 -1 0 1 1 0 -0 -0 -0 -0 -0 -1 1 -0 -2 -1 -2 -2 -1 -1 -0 -0 0 0 1 1 -0 -1 -1 -1 -2 -2 -1 -1 1 -0
2 -3 2 -1 5 5 3 4 -0 -1 -2 -1 -3 -2 -1 1 -0 1 -0 0 -0 -0 -1 -0 -2 -2 -1 -2 -1 -1 -1 -1 -1 -1 -1 -1 -1 0 0 -0 0 -1 0 -2 -0 -1 -2 0 -1
-3 1 1 2 5 6 6 4 2 2 -2 3 -1 -3 -1 -1 0 -1 0 -1 -2 -1 -1 -1 -2 -2 -2 -1 -0 0 0 -0 -1 -2 -1 -1 -1 -1 -0 1 -1 -2 1 0 -1 -1 -2 -1 -1
-1 2 2 0 4 3 1 3 -1 -0 6 0 0 0 0 2 1 -0 -0 -1 -1 -1 -3 -2 -2 -2 -1 -1 -0 -0 -1 -1 -1 -1 -1 -0 -0 -1 -0 -2 -2 -1 -1 1 -2 -1 -1 0 -2
4 1 4 -1 2 3 2 2 1 -0 -0 -0 1 -0 2 1 0 -0 -0 -2 -1 -2 -2 -3 -2 -1 -0 -0 -1 -1 -2 -1 -2 -2 -1 -0 1 1 -0 -2 -2 -3 -2 -2 1 1 0 1 -1
1 3 4 -4 3 2 2 2 3 1 -0 1 0 1 2 1 -0 -0 -1 -0 1 -1 -2 -1 -1 -0 -0 -1 -1 -1 -0 -1 -2 -1 -1 -2 1 1 2 1 -1 -1 -3 -2 -1 -1 2 3 1
2 2 1 -5 2 1 3 -3 0 2 1 1 3 1 -1 -1 1 -1 -0 -1 -1 -3 -2 0 -0 0 -0 -0 -1 -1 -1 -1 -1 -1 -1 -1 -2 1 -0 -0 -0 1 -1 -2 -2 0 -1 1 1
-0 5 1 1 2 2 1 -2 -0 -1 -1 -1 -1 0 1 -0 -3 -2 -3 -2 -2 -2 -1 0 0 1 0 0 -1 -1 -2 -1 -0 -1 -2 -2 -3 -2 -1 -1 -0 1 -1 -2 2 -1 1 -1 -2
2 2 -1 -1 -0 2 0 -1 -3 -2 -0 -1 -1 -3 -1 1 -5 1 -4 -2 -2 -1 1 2 1 -1 -1 -1 -1 -1 -2 -2 -1 -1 -2 -3 -2 -1 -1 -2 -0 1 -0 1 -0 4 0 -3 1
2 7 4 2 -0 1 0 2 -2 -2 1 -0 -1 -0 1 2 -3 -2 -2 -1 -1 -2 -1 -2 -2 -1 -1 -1 -2 -2 -3 -3 -2 -1 -0 -0 -1 -1 -1 -1 -1 -1 0 1 1 -2 3 -6 -3
4 4 1 1 -1 -2 -0 -1 0 -0 0 -2 -3 -1 -3 3 -3 -4 -3 -2 -3 -2 -4 -3 -1 -2 -2 -3 -1 -1 -2 -4 -1 -3 -0 -1 -0 0 -0 -1 -0 -3 -1 -1 -1 0 0 -3 -3
3 1 1 1 -2 -1 -2 -1 1 -1 1 -3 -4 -2 -2 1 -1 -2 -1 0 -0 -1 -1 -1 -1 -1 -2 -1 -1 -3 -1 -0 -1 -2 -1 -2 -0 -1 -1 0 -0 -0 -1 -2 -1 -0 5 -3 -8
-2 -1 -3 1 -1 -2 -1 -4 -2 0 -2 -2 -2 -4 -2 -0 -0 -1 1 -0 1 -1 -1 -1 -2 -2 -2 -1 -2 -2 -2 -3 0 -2 0 -2 -2 -1 -0 -1 -1 -1 -2 -1 -1 -2 1 2 -1
1 -1 -1 1 -2 -3 -1 -6 10 -3 -4 -2 -3 -2 -0 0 1 -1 -1 -1 -1 -4 -3 -2 -1 -2 -3 -3 -0 -2 -0 -0 -1 -1 -1 -0 0 -1 -1 -4 -2 -1 -1 -1 -3 -3 -3 0 -0
-4 -2 -0 -0 -3 -5 -1 -5 10 -3 -4 -2 -2 -1 0 -0 0 -3 -1 -0 -1 -3 -3 -2 -1 -3 -2 -2 -0 -2 -1 0 -1 -0 1 -0 -1 -0 -3 -2 -1 -1 -1 -1 -2 -1 -2 -2 -1
-1 1 -2 -5 -6 -5 -0 -9 9 4 -0 -3 -2 -2 -2 0 -1 0 1 1 0 -1 -0 -1 0 -2 -0 -1 -1 -1 -1 0 2 1 1 -1 -0 -1 -1 -1 0 -1 -1 -2 -1 -1 -1 -3 -2
-1 -1 -1 -2 -3 -3 1 -8 2 2 -0 1 -0 -2 -1 0 0 -1 -1 -2 -1 -2 -1 -2 -0 -2 1 -0 -0 -0 2 2 2 1 0 1 -1 2 0 1 -1 -0 -1 -1 -2 -1 -0 -2 1
1 -3 -1 -3 -4 -3 -1 1 -2 2 -2 -2 -2 -2 1 2 -0 -3 1 1 2 -1 -1 -2 -1 -1 2 2 2 2 2 2 3 2 1 1 2 2 2 0 0 -2 0 -2 -2 -1 -1 -0 3
-1 -0 -4 -3 -7 -3 -2 3 -3 -4 -2 -0 -2 2 3 -4 -4 -2 0 -0 -1 -2 -1 -1 -1 -1 2 2 1 0 0 1 3 5 2 1 4 3 1 -1 1 -2 -2 0 -2 -2 -2 1 2
-1 1 -2 -3 -5 -2 -1 6 0 -1 -0 -2 2 4 -4 -6 -0 1 -0 0 0 1 -0 -3 -3 -4 -1 2 2 1 1 2 3 3 3 3 3 2 -0 1 0 -1 -0 -2 -3 -3 -1 -1 0
-1 -1 -2 -2 2 -1 -1 14 -2 -3 -3 1 4 -3 -2 1 -3 -0 0 0 -1 0 -3 -2 -3 -5 1 -4 -3 -1 2 2 -0 3 3 4 4 1 1 -0 2 1 -2 -2 -2 -1 0 0 1
Height
5838 5843 5847 5851 5855 5858 5864 5867 5867 5869 5870 5872 5874 5876 5875 5877 5879 5881 5881 5882 5882 5882 5882 5881 5882 5882 5882 5882 5882 5882 5882 5882 5881 5880 5880 5879 5878 5877 5876 5875 5874 5873 5872 5871 5871 5870 5869 5868 5867
5835 5839 5842 5845 5849 5855 5861 5863 5865 5867 5868 5870 5873 5875 5875 5877 5877 5879 5882 5882 5882 5882 5882 5882 5882 5882 5883 5882 5882 5882 5882 5882 5881 5881 5880 5880 5878 5878 5876 5875 5874 5873 5872 5871 5870 5869 5868 5866 5865
5832 5835 5838 5840 5844 5851 5856 5858 5861 5864 5866 5869 5872 5875 5876 5877 5878 5880 5882 5882 5882 5882 5882 5882 5883 5883 5883 5882 5882 5882 5881 5881 5881 5881 5880 5879 5878 5877 5876 5875 5874 5872 5871 5870 5869 5868 5867 5865 5864
5828 5831 5833 5836 5843 5847 5851 5853 5857 5861 5864 5867 5870 5874 5877 5877 5879 5880 5881 5882 5882 5882 5882 5882 5882 5883 5883 5882 5881 5881 5881 5881 5880 5880 5879 5878 5877 5876 5875 5874 5872 5871 5870 5868 5867 5866 5864 5863 5862
5822 5827 5828 5833 5839 5843 5846 5847 5853 5858 5861 5864 5868 5872 5875 5877 5878 5880 5881 5881 5881 5882 5882 5882 5881 5882 5882 5881 5881 5880 5880 5879 5878 5878 5877 5876 5875 5874 5872 5871 5869 5868 5867 5865 5864 5863 5861 5860 5859
5818 5822 5826 5832 5836 5838 5842 5845 5851 5856 5859 5862 5867 5870 5873 5876 5877 5879 5879 5879 5880 5880 5881 5881 5880 5880 5880 5879 5879 5879 5878 5877 5876 5875 5873 5872 5871 5870 5869 5867 5866 5864 5863 5862 5860 5859 5857 5857 5856
5815 5821 5828 5830 5832 5835 5840 5845 5851 5856 5860 5862 5866 5869 5872 5874 5875 5877 5878 5878 5879 5879 5880 5879 5879 5878 5878 5878 5877 5876 5875 5874 5872 5871 5870 5868 5867 5865 5864 5863 5861 5860 5859 5858 5856 5855 5853 5852 5851
5812 5818 5823 5825 5828 5833 5839 5845 5851 5856 5859 5862 5865 5867 5870 5872 5874 5875 5876 5876 5877 5877 5878 5878 5877 5877 5877 5875 5874 5873 5871 5869 5868 5866 5865 5864 5863 5862 5860 5859 5858 5856 5855 5854 5852 5851 5849 5848 5846
5809 5816 5819 5823 5826 5833 5839 5844 5849 5854 5857 5860 5863 5865 5868 5870 5871 5872 5873 5874 5875 5875 5875 5875 5875 5874 5873 5872 5871 5869 5867 5866 5865 5863 5862 5861 5860 5859 5857 5856 5855 5853 5852 5850 5849 5847 5846 5844 5842
5806 5813 5817 5821 5826 5833 5836 5841 5846 5852 5855 5858 5861 5863 5865 5867 5868 5869 5871 5871 5872 5872 5873 5872 5872 5871 5869 5868 5867 5865 5864 5863 5862 5860 5859 5858 5856 5855 5854 5852 5851 5849 5847 5846 5844 5842 5840 5839 5837
5804 5810 5815 5819 5824 5830 5836 5840 5844 5848 5853 5854 5857 5860 5863 5864 5865 5867 5868 5868 5869 5869 5869 5869 5868 5867 5865 5864 5863 5862 5861 5860 5858 5857 5855 5853 5852 5850 5849 5847 5845 5843 5841 5839 5837 5835 5834 5832 5830
5800 5805 5810 5815 5822 5828 5834 5838 5841 5845 5849 5851 5855 5858 5860 5861 5862 5864 5865 5865 5866 5865 5865 5865 5863 5862 5861 5859 5859 5858 5857 5855 5854 5852 5851 5848 5846 5845 5843 5841 5839 5837 5835 5833 5831 5828 5826 5823 5821
5795 5803 5809 5814 5820 5826 5830 5834 5838 5842 5844 5848 5851 5854 5856 5858 5859 5861 5861 5862 5862 5861 5860 5860 5859 5857 5856 5855 5854 5853 5852 5850 5848 5846 5844 5843 5841 5839 5836 5834 5832 5829 5827 5825 5823 5820 5817 5814 5812
5792 5798 5805 5812 5817 5821 5827 5832 5835 5840 5842 5846 5848 5851 5853 5855 5857 5857 5857 5857 5857 5856 5855 5854 5853 5851 5851 5850 5849 5848 5846 5844 5842 5840 5838 5836 5834 5832 5830 5827 5824 5821 5819 5816 5813 5810 5808 5805 5803
5786 5794 5802 5809 5814 5819 5824 5829 5833 5836 5840 5843 5846 5849 5850 5852 5853 5853 5853 5852 5852 5852 5851 5849 5848 5847 5846 5845 5844 5842 5840 5838 5836 5833 5831 5829 5826 5824 5822 5819 5816 5813 5810 5806 5803 5801 5798 5796 5793
5782 5790 5798 5807 5811 5815 5821 5825 5829 5833 5838 5841 5843 5845 5847 5848 5848 5848 5847 5846 5846 5846 5845 5844 5843 5842 5841 5840 5838 5836 5834 5831 5829 5826 5824 5821 5818 5815 5812 5809 5806 5803 5800 5797 5795 5791 5789 5787 5784
5779 5788 5796 5804 5808 5812 5818 5822 5826 5830 5834 5837 5839 5842 5842 5842 5843 5842 5842 5841 5840 5840 5839 5838 5837 5837 5835 5834 5832 5829 5827 5824 5821 5819 5816 5812 5809 5806 5803 5800 5796 5794 5791 5788 5785 5782 5780 5775 5772
5780 5787 5795 5802 5807 5810 5815 5819 5824 5827 5831 5833 5835 5836 5837 5838 5837 5838 5836 5834 5833 5833 5832 5832 5832 5830 5829 5827 5824 5821 5819 5816 5813 5810 5806 5803 5800 5797 5794 5790 5787 5785 5782 5778 5775 5772 5768 5766 5764
5778 5786 5793 5799 5805 5809 5812 5816 5820 5824 5827 5828 5829 5831 5832 5832 5832 5830 5829 5827 5826 5826 5826 5826 5825 5823 5821 5819 5816 5813 5809 5806 5803 5800 5797 5794 5791 5788 5785 5782 5778 5775 5772 5768 5765 5762 5760 5758 5757
5777 5782 5789 5795 5800 5805 5809 5813 5816 5819 5821 5823 5824 5825 5825 5826 5825 5824 5822 5821 5820 5819 5819 5819 5817 5815 5813 5810 5807 5804 5800 5796 5792 5789 5787 5785 5783 5779 5776 5772 5769 5765 5762 5759 5758 5757 5754 5751 5750
5775 5781 5787 5793 5797 5802 5806 5810 5812 5815 5817 5817 5818 5819 5819 5819 5819 5817 5817 5816 5814 5813 5812 5810 5809 5806 5804 5800 5797 5793 5790 5786 5784 5781 5779 5776 5773 5770 5766 5763 5760 5757 5756 5754 5753 5751 5749 5745 5742
5774 5779 5785 5790 5794 5799 5803 5807 5808 5810 5811 5812 5812 5812 5812 5812 5812 5811 5811 5810 5809 5807 5804 5802 5799 5797 5793 5790 5787 5783 5780 5777 5775 5774 5772 5768 5765 5761 5758 5756 5754 5753 5751 5750 5748 5745 5742 5739 5735
5773 5779 5784 5787 5791 5795 5798 5801 5806 5804 5805 5806 5806 5805 5805 5805 5805 5804 5804 5803 5801 5798 5795 5792 5789 5786 5782 5779 5777 5774 5772 5769 5767 5765 5763 5760 5757 5754 5752 5751 5750 5749 5747 5745 5743 5740 5737 5733 5730
5772 5778 5781 5784 5788 5791 5794 5797 5800 5799 5799 5799 5799 5799 5799 5798 5798 5796 5795 5793 5790 5787 5784 5781 5777 5775 5772 5770 5767 5765 5763 5761 5759 5756 5754 5751 5750 5749 5748 5747 5746 5744 5742 5740 5737 5735 5731 5728 5725
5771 5775 5778 5782 5784 5788 5789 5790 5794 5793 5793 5793 5792 5792 5792 5791 5790 5788 5785 5783 5779 5776 5773 5771 5768 5765 5763 5760 5758 5756 5754 5752 5750 5748 5746 5745 5745 5744 5744 5742 5741 5740 5737 5735 5732 5730 5726 5724 5719
5769 5772 5775 5777 5779 5783 5783 5784 5786 5785 5785 5786 5786 5785 5783 5782 5780 5777 5774 5771 5768 5765 5762 5760 5758 5755 5752 5749 5748 5746 5744 5743 5741 5740 5740 5740 5740 5740 5739 5738 5736 5734 5732 5729 5727 5724 5722 5718 5714
5766 5769 5771 5772 5774 5776 5777 5779 5778 5778 5778 5777 5777 5775 5773 5771 5768 5766 5763 5761 5758 5756 5753 5750 5747 5744 5740 5737 5736 5735 5734 5734 5734 5734 5734 5735 5735 5735 5735 5733 5732 5730 5727 5725 5722 5720 5716 5713 5709
5761 5764 5766 5766 5768 5769 5770 5770 5769 5769 5768 5767 5766 5764 5762 5761 5759 5757 5754 5752 5750 5747 5745 5741 5737 5732 5728 5727 5728 5728 5728 5727 5728 5729 5730 5730 5731 5732 5731 5729 5728 5726 5723 5720 5718 5715 5711 5708 5704
5756 5757 5758 5759 5760 5760 5762 5764 5761 5760 5759 5757 5757 5756 5755 5752 5749 5748 5746 5743 5740 5738 5736 5732 5728 5723 5720 5721 5722 5722 5722 5723 5724 5725 5726 5726 5726 5727 5727 5725 5724 5722 5719 5717 5714 5710 5706 5702 5699
5750 5751 5752 5752 5754 5754 5754 5758 5753 5752 5751 5750 5751 5749 5744 5743 5741 5739 5737 5736 5734 5731 5730 5726 5722 5717 5716 5718 5719 5719 5718 5719 5720 5721 5722 5722 5722 5722 5723 5721 5720 5718 5715 5712 5709 5706 5701 5697 5693